Wind_Speed
30 25 19 19 20 21 23 23 22 19 18 19 19 21 21 19 18 18 17 16 15 15 15 16 16 15 14 14 14 14 13 13 12 12 13 13 13 13 13 14 14 15 15 16
32 30 24 21 19 19 20 22 23 22 20 21 21 23 22 21 20 18 18 17 16 16 15 16 16 16 15 14 14 14 14 14 13 13 14 14 13 13 13 14 14 15 15 16
31 29 29 28 23 21 21 21 21 21 23 23 24 25 23 23 21 20 19 18 17 16 16 16 16 16 16 16 16 15 15 15 15 15 15 14 14 14 14 15 15 16 16 17
31 28 28 27 24 23 22 21 22 24 24 24 26 26 24 23 23 21 20 18 17 17 17 17 17 17 17 16 16 16 17 17 16 16 16 16 16 16 16 16 17 17 17 18
31 28 26 23 24 24 24 25 25 25 25 26 26 26 26 25 24 22 21 20 19 18 18 18 18 17 17 17 17 18 18 18 18 18 18 17 17 17 18 18 19 19 19 20
33 30 26 26 25 25 27 29 29 29 28 27 27 27 27 26 24 22 21 21 20 20 19 19 19 19 19 18 18 19 19 19 19 19 19 19 19 19 19 20 20 20 21 22
35 33 30 28 28 28 29 32 31 30 30 30 30 30 28 27 25 24 23 23 22 22 21 21 21 21 20 20 20 20 20 20 20 20 20 21 21 21 22 22 22 22 22 23
36 36 34 34 33 31 32 30 29 30 30 30 30 29 29 28 27 25 24 24 24 24 23 23 23 23 22 22 22 22 22 22 23 23 23 23 24 24 24 24 24 24 24 25
36 38 39 37 36 35 35 34 33 33 32 32 31 30 30 29 28 27 27 27 26 25 25 25 25 24 24 24 24 25 25 25 25 25 25 25 26 26 26 26 26 26 26 26
36 38 40 40 39 39 38 37 36 35 34 34 33 32 31 31 30 30 29 29 29 28 28 28 27 27 27 27 27 28 27 27 27 27 27 28 28 27 28 28 28 28 28 28
39 39 40 42 41 40 38 38 37 37 36 36 34 34 33 33 32 32 31 31 30 30 30 30 30 30 29 29 30 30 30 29 29 29 30 30 30 29 30 30 30 30 30 30
42 42 42 42 42 41 39 39 38 38 38 37 36 35 35 34 33 33 33 32 32 31 32 31 31 31 31 31 31 31 31 31 31 31 31 32 32 32 32 32 32 32 32 32
41 41 42 42 42 41 41 40 40 39 39 38 38 37 36 35 34 34 34 34 34 34 34 34 33 33 33 33 33 33 33 33 33 33 32 33 33 33 34 34 33 33 33 33
41 41 42 42 42 42 41 41 41 41 41 40 39 39 38 37 36 35 35 35 35 35 35 35 35 35 34 34 35 35 35 35 34 34 34 34 34 34 35 34 33 34 34 35
41 41 41 41 42 42 41 41 41 42 42 41 40 40 39 38 37 37 37 37 36 36 36 36 36 36 36 36 35 36 36 35 34 34 35 35 35 35 35 35 34 34 35 35
39 39 40 40 41 41 41 41 41 42 41 40 40 40 39 38 38 38 38 38 37 37 36 36 36 36 36 36 36 37 36 36 35 35 35 35 35 35 34 35 34 34 35 35
37 38 39 39 39 39 39 40 40 40 39 39 39 39 39 38 38 39 38 38 37 37 37 37 36 36 36 36 37 36 36 37 37 37 36 36 36 35 35 35 35 35 35 35
35 36 37 37 37 38 38 38 38 39 38 38 38 38 39 39 39 39 39 38 38 38 38 37 37 37 36 36 36 36 37 37 36 36 36 35 35 35 35 35 35 35 34 34
33 34 34 35 35 36 36 36 37 37 38 37 37 37 36 36 37 38 38 38 37 37 37 36 36 36 36 36 37 36 36 36 35 35 35 34 35 35 35 35 34 34 33 33
31 32 32 32 33 34 35 35 35 35 35 35 35 35 35 35 36 37 37 37 36 36 35 35 35 35 35 35 35 34 34 34 34 34 35 35 34 34 33 32 32 32 32 32
28 29 30 30 30 31 32 32 33 33 33 33 33 34 34 34 35 36 36 37 36 35 35 34 34 34 34 34 34 34 33 33 34 34 33 33 33 32 31 31 31 31 31 31
25 26 27 28 28 29 29 29 30 31 32 32 32 32 33 33 33 33 33 33 33 34 34 34 33 33 33 33 33 33 33 33 33 33 32 32 31 31 31 31 30 31 30 29
23 24 24 25 26 27 27 28 28 29 29 29 29 30 30 31 30 29 30 30 31 31 32 31 31 31 31 31 31 32 32 32 31 30 30 30 29 29 29 29 29 28 28 28
19 20 22 22 23 23 23 24 25 25 25 25 25 25 25 26 26 27 27 27 27 28 28 28 29 29 29 29 30 30 30 29 28 28 27 27 27 28 27 27 27 27 27 28
15 16 16 17 18 18 19 19 20 20 21 21 22 22 23 23 23 23 23 24 24 24 25 25 25 25 26 26 26 26 26 26 26 26 26 26 26 26 26 27 27 27 28 28
11 12 14 14 15 15 16 16 16 17 17 18 18 18 19 20 21 21 22 22 22 23 23 22 23 23 23 23 23 23 23 24 24 24 24 25 25 25 26 26 27 28 28 28
9 9 10 11 12 12 12 12 13 13 14 14 14 15 16 16 17 18 18 19 19 19 20 20 20 20 21 21 21 21 22 22 23 23 24 24 25 25 26 27 28 28 29 29
Wind_Direction
219 216 225 243 248 241 236 231 231 239 246 253 262 267 271 279 287 290 291 291 290 293 299 303 307 309 311 312 314 312 312 309 308 309 311 309 307 303 301 300 295 293 292 292
221 216 218 229 234 239 242 239 233 234 243 252 256 262 270 277 283 286 285 285 286 289 294 298 301 303 305 306 309 310 309 308 305 307 311 311 309 306 304 302 301 299 298 297
225 222 223 228 229 231 234 238 236 238 241 246 254 260 263 271 277 279 280 282 281 284 288 293 298 299 298 301 303 305 307 308 305 306 309 310 311 310 308 306 302 299 298 298
224 221 226 232 232 234 236 235 235 236 238 242 249 256 262 267 273 275 275 278 279 280 282 288 295 296 295 296 300 302 304 305 304 303 304 307 310 308 305 305 305 304 302 301
224 225 228 229 229 226 229 232 232 233 236 239 246 254 260 262 266 270 271 273 274 276 279 284 290 291 293 295 297 299 302 303 302 302 304 306 307 307 304 303 303 301 300 301
223 222 224 227 227 227 227 232 234 234 237 241 247 252 257 262 265 268 268 272 274 277 278 280 284 288 288 291 292 295 298 300 300 301 303 306 307 307 306 304 303 302 302 301
224 224 228 228 227 223 224 231 235 237 239 242 247 252 259 264 265 267 267 270 272 275 277 278 280 283 285 287 289 292 295 298 300 300 301 303 304 306 307 306 304 304 304 303
227 225 228 228 230 227 228 232 237 240 243 247 251 254 257 261 262 263 266 268 270 273 274 275 276 278 280 283 286 289 292 294 296 297 298 299 300 301 303 303 302 302 302 302
229 228 229 229 231 233 236 238 241 243 247 250 252 254 256 259 260 263 265 267 268 270 272 273 274 276 277 280 282 286 289 291 293 294 295 295 297 298 298 300 300 300 300 301
230 232 232 231 233 236 237 240 243 246 249 252 253 255 257 258 261 263 265 266 267 268 271 271 273 274 277 279 281 284 286 289 290 290 291 294 295 295 295 296 297 298 298 299
231 234 235 235 237 239 240 242 244 247 249 251 254 256 257 259 260 262 263 265 265 267 269 271 272 274 275 278 279 281 284 287 289 289 290 291 292 293 294 294 295 295 295 296
231 234 237 239 240 242 244 245 247 249 250 252 253 255 256 257 259 260 262 262 263 265 268 268 270 272 275 277 279 281 283 287 290 290 289 289 290 291 291 292 292 293 293 294
237 239 241 243 244 245 246 247 248 249 250 251 252 253 255 256 258 259 261 261 261 263 265 267 270 272 273 275 278 281 283 285 288 289 290 290 291 291 290 290 290 290 290 291
239 240 242 244 245 246 247 248 249 250 250 250 251 252 254 256 257 258 259 261 261 262 264 267 269 271 273 274 276 280 283 285 286 289 289 290 290 289 289 289 289 289 290 290
241 242 243 245 245 247 248 249 249 249 250 250 250 251 253 254 255 256 257 259 261 262 264 266 268 271 272 274 276 279 281 283 285 287 289 290 290 289 288 289 290 290 290 290
242 243 243 244 246 247 248 248 249 249 249 249 250 251 252 253 254 255 256 257 260 262 264 266 269 271 271 272 275 277 280 283 285 287 289 289 289 289 289 290 290 290 291 291
244 244 244 245 246 247 247 247 247 247 247 248 250 250 251 251 252 253 255 257 259 261 263 266 269 271 272 272 275 278 281 283 285 286 287 288 289 289 289 290 291 292 292 291
244 244 244 245 246 246 245 245 245 245 247 248 249 250 250 251 252 253 255 258 260 262 264 265 267 269 272 274 276 278 281 283 284 285 286 288 289 289 288 289 290 292 291 291
243 243 243 245 245 245 245 244 244 245 246 247 248 250 250 251 252 254 255 258 259 261 262 263 266 269 272 273 276 279 281 284 285 285 287 287 288 288 289 289 290 291 291 290
242 242 242 243 243 243 244 245 244 245 246 246 248 249 249 251 252 253 256 258 258 260 261 264 267 270 272 274 276 279 281 283 285 287 286 287 288 289 289 289 289 290 291 291
242 240 240 240 241 242 243 243 244 244 245 246 248 249 250 251 252 255 257 257 258 261 263 265 268 270 271 273 276 278 280 282 285 286 287 287 288 288 288 289 290 291 292 292
242 240 239 239 239 240 241 241 242 244 245 247 249 250 251 252 253 254 256 258 260 262 264 266 269 271 272 274 276 278 281 282 284 285 285 285 286 287 289 290 290 291 291 291
241 240 238 238 238 240 242 242 243 244 245 247 249 250 250 252 254 255 256 259 261 263 265 267 270 272 273 275 276 278 280 281 281 282 283 285 287 288 289 290 291 291 291 291
239 238 237 236 236 238 240 241 242 243 244 246 247 249 250 252 255 258 261 262 264 265 266 266 268 271 273 274 276 277 279 281 282 282 283 285 286 287 288 290 291 291 292 293
233 231 229 228 230 234 238 239 240 241 242 242 245 249 252 253 255 258 260 263 264 264 265 266 267 270 272 275 277 278 279 281 282 283 284 285 287 288 289 291 292 293 294 295
226 225 224 224 225 230 233 234 237 239 241 243 245 247 250 253 256 259 262 262 263 265 266 268 270 272 275 277 277 278 279 281 283 284 285 287 289 290 291 292 294 294 295 296
214 217 216 215 216 220 225 228 231 235 238 241 244 247 252 256 258 259 261 261 263 266 267 269 271 274 276 277 278 279 282 284 285 287 288 290 291 292 293 293 294 295 296 297
Height
5871 5876 5880 5882 5883 5886 5889 5891 5895 5897 5897 5895 5894 5893 5891 5891 5892 5893 5892 5891 5891 5891 5890 5889 5888 5887 5885 5884 5883 5882 5881 5880 5879 5878 5877 5875 5874 5873 5872 5872 5871 5871 5870 5869
5864 5869 5873 5877 5879 5882 5884 5886 5889 5891 5892 5891 5889 5889 5888 5888 5890 5890 5889 5889 5888 5888 5887 5886 5885 5884 5883 5882 5881 5880 5879 5878 5877 5876 5875 5873 5871 5870 5870 5869 5868 5867 5866 5865
5858 5863 5867 5870 5874 5877 5880 5881 5884 5886 5887 5886 5885 5885 5885 5885 5886 5886 5886 5885 5885 5885 5885 5884 5882 5881 5880 5879 5878 5877 5876 5875 5874 5873 5872 5870 5869 5868 5867 5866 5865 5864 5863 5862
5852 5857 5860 5866 5870 5872 5874 5876 5877 5879 5880 5881 5880 5880 5881 5881 5881 5882 5881 5881 5881 5881 5881 5880 5879 5878 5877 5876 5875 5875 5874 5873 5872 5871 5870 5868 5867 5865 5864 5863 5862 5860 5859 5858
5845 5850 5854 5860 5862 5865 5867 5868 5870 5872 5873 5874 5874 5875 5876 5876 5877 5877 5877 5877 5876 5877 5877 5877 5876 5874 5874 5873 5873 5872 5871 5870 5869 5868 5866 5865 5864 5862 5861 5860 5858 5857 5855 5854
5838 5843 5848 5852 5854 5856 5860 5861 5862 5864 5867 5868 5869 5870 5870 5871 5872 5873 5873 5872 5872 5872 5873 5873 5872 5871 5870 5870 5869 5869 5868 5867 5865 5864 5863 5862 5860 5859 5857 5856 5854 5852 5851 5849
5830 5835 5839 5843 5844 5847 5852 5851 5854 5857 5860 5861 5863 5864 5865 5865 5866 5868 5868 5868 5868 5868 5869 5868 5868 5868 5867 5866 5866 5865 5864 5863 5862 5860 5859 5858 5857 5855 5853 5852 5850 5848 5846 5844
5823 5827 5832 5834 5835 5838 5840 5843 5847 5850 5852 5854 5856 5858 5859 5860 5860 5861 5863 5863 5863 5863 5863 5863 5863 5862 5862 5862 5861 5860 5859 5858 5857 5856 5855 5853 5852 5850 5849 5847 5845 5843 5841 5839
5814 5819 5821 5824 5827 5830 5833 5837 5840 5843 5845 5848 5850 5852 5853 5854 5853 5855 5856 5857 5857 5857 5857 5857 5857 5857 5856 5856 5856 5855 5854 5853 5852 5851 5849 5848 5846 5845 5843 5841 5839 5837 5835 5833
5804 5807 5811 5815 5818 5821 5825 5829 5833 5836 5838 5840 5842 5844 5846 5847 5848 5849 5850 5851 5851 5851 5851 5851 5851 5850 5850 5850 5850 5849 5848 5847 5846 5845 5843 5842 5840 5839 5837 5835 5833 5831 5829 5827
5795 5798 5802 5805 5809 5813 5817 5821 5825 5828 5830 5832 5835 5837 5838 5839 5841 5842 5843 5844 5844 5844 5844 5844 5844 5844 5843 5843 5843 5842 5841 5840 5839 5838 5836 5835 5833 5831 5830 5828 5826 5824 5822 5820
5785 5789 5793 5796 5801 5805 5809 5813 5816 5819 5822 5824 5826 5828 5829 5831 5833 5834 5835 5836 5836 5837 5836 5836 5835 5836 5836 5836 5835 5835 5834 5833 5832 5830 5829 5827 5825 5823 5821 5820 5818 5816 5814 5812
5777 5781 5785 5788 5792 5796 5800 5804 5807 5810 5812 5815 5817 5818 5820 5822 5824 5825 5826 5827 5828 5828 5829 5828 5828 5828 5828 5828 5827 5827 5826 5825 5823 5822 5820 5819 5817 5815 5813 5811 5809 5807 5805 5803
5768 5772 5776 5779 5783 5786 5790 5793 5796 5799 5802 5805 5807 5808 5811 5813 5814 5816 5817 5818 5819 5819 5820 5820 5820 5820 5820 5820 5819 5818 5817 5816 5815 5813 5811 5810 5808 5806 5804 5802 5800 5798 5796 5794
5758 5762 5766 5769 5773 5776 5779 5783 5785 5788 5791 5794 5796 5798 5800 5803 5805 5806 5807 5808 5809 5810 5811 5811 5811 5811 5811 5811 5810 5810 5809 5808 5806 5805 5803 5801 5799 5797 5795 5793 5791 5789 5787 5785
5749 5753 5756 5759 5762 5766 5769 5772 5774 5777 5779 5783 5785 5788 5790 5793 5795 5796 5797 5799 5800 5801 5801 5802 5802 5802 5802 5802 5801 5801 5800 5798 5797 5795 5794 5792 5790 5788 5786 5784 5782 5780 5777 5775
5740 5743 5746 5749 5752 5755 5758 5761 5764 5766 5769 5772 5775 5778 5780 5783 5784 5786 5788 5789 5791 5792 5792 5792 5793 5793 5793 5792 5792 5791 5790 5789 5787 5786 5784 5782 5780 5778 5776 5774 5772 5770 5768 5765
5731 5734 5736 5739 5742 5745 5747 5750 5753 5756 5759 5762 5765 5768 5770 5773 5775 5776 5778 5779 5781 5782 5782 5783 5783 5784 5783 5783 5782 5782 5781 5779 5778 5776 5775 5773 5771 5769 5766 5765 5763 5760 5758 5755
5722 5725 5727 5730 5733 5735 5737 5740 5743 5747 5750 5753 5756 5758 5760 5762 5765 5767 5768 5770 5771 5772 5773 5773 5774 5774 5774 5774 5773 5772 5771 5770 5768 5767 5765 5763 5762 5760 5758 5755 5753 5751 5748 5746
5713 5716 5719 5722 5724 5727 5729 5732 5735 5738 5741 5744 5746 5749 5751 5753 5756 5757 5759 5760 5761 5762 5763 5764 5764 5765 5764 5764 5763 5763 5762 5761 5759 5758 5756 5754 5752 5750 5748 5746 5744 5742 5740 5737
5706 5708 5711 5714 5716 5719 5721 5724 5727 5730 5733 5735 5738 5740 5742 5744 5746 5747 5749 5750 5752 5753 5754 5754 5755 5755 5755 5754 5754 5753 5752 5751 5750 5748 5747 5745 5743 5741 5739 5737 5735 5733 5731 5729
5699 5701 5704 5706 5709 5711 5714 5716 5719 5722 5724 5727 5729 5731 5733 5735 5737 5739 5740 5741 5743 5744 5744 5745 5745 5745 5745 5745 5744 5744 5743 5742 5740 5739 5737 5736 5734 5732 5730 5728 5727 5725 5722 5720
5693 5695 5698 5700 5702 5705 5707 5710 5712 5714 5717 5719 5721 5723 5725 5727 5729 5731 5732 5733 5734 5735 5735 5736 5736 5736 5736 5735 5735 5734 5733 5732 5731 5730 5728 5727 5725 5723 5722 5720 5718 5716 5714 5712
5688 5690 5692 5695 5697 5699 5702 5704 5706 5708 5711 5713 5715 5717 5718 5720 5722 5724 5725 5725 5726 5727 5727 5727 5727 5727 5727 5727 5726 5726 5725 5724 5722 5721 5720 5718 5717 5715 5714 5712 5710 5708 5706 5704
5684 5686 5688 5690 5692 5695 5697 5699 5701 5703 5705 5707 5709 5711 5712 5713 5715 5716 5717 5718 5719 5719 5719 5719 5719 5719 5719 5719 5718 5717 5717 5716 5714 5713 5712 5710 5709 5707 5706 5704 5702 5700 5698 5696
5681 5683 5685 5687 5689 5691 5693 5695 5697 5699 5700 5702 5704 5705 5706 5708 5709 5710 5711 5711 5712 5712 5712 5712 5713 5712 5712 5712 5711 5710 5709 5708 5707 5706 5704 5703 5702 5700 5698 5696 5694 5692 5690 5688
5679 5681 5682 5684 5686 5688 5690 5692 5694 5696 5697 5698 5700 5701 5702 5703 5704 5705 5705 5705 5706 5706 5706 5706 5706 5706 5706 5705 5704 5703 5702 5701 5700 5699 5698 5696 5694 5693 5691 5689 5687 5684 5682 5680